This is the latest recevied weather packets stored in our database for station/object K7FRY. If no packets are shown the sender has not sent any weather packets the latest 1 day(s).
| Time | Temp. | Humidity | Pressure | Rain* | Wind** | Luminosity | Snow |
|---|---|---|---|---|---|---|---|
| 1778044416 | 17.22° C | 47% | 1015.3 hPa | 0 mm | 1.34 m/s, 256° | 0 W/m² | - |
| 1778044114 | 17.22° C | 47% | 1015 hPa | 0 mm | 1.34 m/s, 253° | 0 W/m² | - |
| 1778043811 | 16.67° C | 46% | 1015.2 hPa | 0 mm | 1.34 m/s, 240° | 0 W/m² | - |
| 1778043508 | 16.67° C | 47% | 1015.2 hPa | 0 mm | 1.34 m/s, 240° | 0 W/m² | - |
| 1778043205 | 16.67° C | 48% | 1014.9 hPa | 0 mm | 1.34 m/s, 247° | 0 W/m² | - |
| 1778042901 | 16.67° C | 47% | 1014.8 hPa | 0 mm | 1.79 m/s, 281° | 0 W/m² | - |
| 1778042599 | 16.11° C | 49% | 1014.7 hPa | 0 mm | 0.89 m/s, 271° | 0 W/m² | - |
| 1778042296 | 16.67° C | 50% | 1014.8 hPa | 0 mm | 0.89 m/s, 258° | 0 W/m² | - |
| 1778041994 | 16.67° C | 50% | 1014.8 hPa | 0 mm | 0.89 m/s, 253° | 0 W/m² | - |
| 1778041692 | 16.67° C | 50% | 1014.7 hPa | 0 mm | 0.89 m/s, 257° | 0 W/m² | - |
| 1778041391 | 16.67° C | 49% | 1014.4 hPa | 0 mm | 1.34 m/s, 240° | 0 W/m² | - |
| 1778041089 | 17.22° C | 48% | 1014.5 hPa | 0 mm | 1.34 m/s, 276° | 0 W/m² | - |
| 1778040785 | 17.78° C | 47% | 1014.5 hPa | 0 mm | 1.34 m/s, 270° | 0 W/m² | - |
| 1778040483 | 17.78° C | 45% | 1014.2 hPa | 0 mm | 1.34 m/s, 225° | 0 W/m² | - |
| 1778040180 | 17.78° C | 44% | 1014.2 hPa | 0 mm | 0.45 m/s, 197° | 0 W/m² | - |
| 1778039876 | 17.78° C | 44% | 1014 hPa | 0 mm | 1.34 m/s, 177° | 0 W/m² | - |
| 1778039573 | 17.22° C | 46% | 1014.2 hPa | 0 mm | 0.45 m/s, 179° | 0 W/m² | - |
| 1778039270 | 17.22° C | 48% | 1014 hPa | 0 mm | 0.45 m/s, 157° | 0 W/m² | - |
| 1778038968 | 17.22° C | 48% | 1013.9 hPa | 0 mm | 0 m/s | 0 W/m² | - |
| 1778038664 | 17.22° C | 48% | 1013.8 hPa | 0 mm | 0.45 m/s, 244° | 0 W/m² | - |
| 1778038362 | 17.22° C | 48% | 1013.9 hPa | 0 mm | 0.45 m/s, 258° | 0 W/m² | - |
| 1778038058 | 17.78° C | 47% | 1013.9 hPa | 0 mm | 0.45 m/s, 234° | 0 W/m² | - |
| 1778037755 | 17.78° C | 48% | 1013.5 hPa | 0 mm | 0.89 m/s, 296° | 0 W/m² | - |
| 1778037452 | 17.78° C | 47% | 1013.7 hPa | 0 mm | 0.45 m/s, 209° | 0 W/m² | - |
| 1778037150 | 17.78° C | 46% | 1013.6 hPa | 0 mm | 0.45 m/s, 221° | 0 W/m² | - |
* Rain latest hour (hover to see other rain measurements)
** Current wind speed in m/s (hover to see current wind gust speed)